Change the Weather History Date:

Wednesday, September 11, 2013

  Actual Average Record
Temperature  
Mean Temperature 82 °F -  
Max Temperature 88 °F - - ()
Min Temperature 78 °F - - ()
Cooling Degree Days 18    
Growing Degree Days 32 (Base 50)    
Moisture  
Dew Point 75 °F    
Average Humidity 81    
Maximum Humidity 97    
Minimum Humidity 65    
Precipitation  
Precipitation 0.09 in - - ()
Sea Level Pressure  
Sea Level Pressure 29.96 in    
Wind  
Wind Speed 9 mph (East)    
Max Wind Speed 18 mph    
Max Gust Speed 25 mph    
Visibility 9 miles    
Events Rain    
T = Trace of Precipitation, MM = Missing Value Source: NWS Daily Summary

Daily Weather History Graph

Daily Weather History Graph

Search for Another Location

Airport or City:

Trip Planner

Search our weather history database for the weather conditions in past years. The results will help you decide how hot, cold, wet, or windy it might be!

Date:

Astronomy

Sep. 11, 2013 Rise Set
Actual Time 7:13 AM CDT 7:37 PM CDT
Civil Twilight 6:50 AM CDT 8:00 PM CDT
Nautical Twilight 6:23 AM CDT 8:27 PM CDT
Astronomical Twilight 5:55 AM CDT 8:55 PM CDT
Moon 1:06 PM CDT (9/11) No Moon Set
Length of Visible Light 13h 10m
Length of Day
12h 24m
Waxing Crescent, 39% of the Moon is Illuminated
Sep 11
Waxing Crescent
Sep 12
First Quarter
Sep 19
Full
Sep 26
Last Quarter
Oct 4
New

Hourly Weather History & Observations

Time (CDT) Temp. Heat Index Dew Point Humidity Pressure Visibility Wind Dir Wind Speed Gust Speed Precip Events Conditions
12:42 AM 82.4 °F 89.5 °F 75.2 °F 79% 29.96 in 10.0 mi ESE 11.5 mph - N/A   Mostly Cloudy
12:53 AM 81.0 °F 87.3 °F 75.9 °F 85% 29.96 in 10.0 mi ESE 6.9 mph - N/A   Mostly Cloudy
1:18 AM 82.4 °F 89.5 °F 75.2 °F 79% 29.96 in 10.0 mi ESE 11.5 mph - N/A   Partly Cloudy
1:35 AM 80.6 °F 85.4 °F 73.4 °F 79% 29.96 in 8.0 mi SE 18.4 mph 25.3 mph N/A   Mostly Cloudy
1:42 AM 78.8 °F - 73.4 °F 83% 29.96 in 5.0 mi SE 6.9 mph 25.3 mph 0.03 in Rain Heavy Rain
1:53 AM 79.0 °F - 75.0 °F 88% 29.96 in 10.0 mi ESE 6.9 mph - 0.03 in   Mostly Cloudy
2:53 AM 79.0 °F - 78.1 °F 97% 29.95 in 10.0 mi ESE 8.1 mph - N/A   Scattered Clouds
3:53 AM 80.1 °F 85.8 °F 77.0 °F 90% 29.94 in 10.0 mi ESE 8.1 mph - N/A   Clear
4:53 AM 80.1 °F 85.1 °F 75.0 °F 85% 29.94 in 10.0 mi East 6.9 mph - N/A   Clear
5:53 AM 79.0 °F - 75.0 °F 88% 29.94 in 10.0 mi East 6.9 mph - N/A   Clear
6:53 AM 80.1 °F 84.5 °F 73.9 °F 81% 29.96 in 10.0 mi East 6.9 mph - N/A   Partly Cloudy
7:53 AM 80.1 °F 84.5 °F 73.9 °F 81% 29.97 in 9.0 mi East 4.6 mph - N/A   Clear
8:53 AM 84.0 °F 91.9 °F 75.0 °F 74% 29.99 in 9.0 mi East 8.1 mph - N/A   Clear
9:53 AM 84.9 °F 92.1 °F 73.9 °F 69% 29.99 in 9.0 mi East 10.4 mph - N/A   Partly Cloudy
10:53 AM 87.1 °F 95.4 °F 73.9 °F 65% 30.01 in 9.0 mi East 11.5 mph - N/A   Clear
11:53 AM 86.0 °F 95.1 °F 75.0 °F 70% 30.01 in 8.0 mi East 11.5 mph - N/A   Partly Cloudy
12:53 PM 82.9 °F 91.8 °F 77.0 °F 82% 29.99 in 10.0 mi East 6.9 mph - 0.03 in   Mostly Cloudy
1:53 PM 84.0 °F 90.2 °F 73.0 °F 69% 29.98 in 9.0 mi East 11.5 mph - N/A   Mostly Cloudy
2:53 PM 84.0 °F 91.2 °F 73.9 °F 72% 29.96 in 9.0 mi ENE 9.2 mph - N/A   Clear
3:53 PM 84.9 °F 92.1 °F 73.9 °F 69% 29.95 in 9.0 mi ENE 10.4 mph - N/A   Clear
4:53 PM 82.9 °F 90.8 °F 75.9 °F 79% 29.94 in 8.0 mi East 8.1 mph - 0.00 in   Clear
5:53 PM 82.9 °F 90.2 °F 75.0 °F 77% 29.94 in 8.0 mi East 12.7 mph - N/A   Scattered Clouds
6:53 PM 81.0 °F 88.6 °F 78.1 °F 91% 29.94 in 8.0 mi East 6.9 mph - 0.03 in   Mostly Cloudy
7:53 PM 81.0 °F 87.9 °F 77.0 °F 88% 29.94 in 9.0 mi East 9.2 mph - N/A   Clear
8:53 PM 81.0 °F 86.7 °F 75.0 °F 82% 29.96 in 9.0 mi East 9.2 mph - N/A   Clear
9:53 PM 81.0 °F 87.3 °F 75.9 °F 85% 29.97 in 9.0 mi East 8.1 mph - N/A   Partly Cloudy
10:53 PM 81.0 °F 87.3 °F 75.9 °F 85% 29.97 in 9.0 mi East 8.1 mph - N/A   Clear
11:53 PM 80.1 °F 85.4 °F 75.9 °F 87% 29.96 in 9.0 mi East 5.8 mph - N/A   Partly Cloudy